Regional Weather Roundup
Issued by NWS

Home | Current Version | Previous Version | Text Only | Print | Product List | Glossary Off
Versions: 1 2 3 4 5 6 7 8 9 10 11 12 13 14 15 16 17 18 19 20 21 22 23 24 25 26 27 28 29 30 31 32 33 34 35 36 37 38 39 40 41 42 43 44 45 46 47 48 49 50

000
ASUS43 KMPX 290401
RWRMN
WEATHER ROUNDUP FOR MINNESOTA
NATIONAL WEATHER SERVICE TWIN CITIES/CHANHASSEN MN
1100 PM CDT TUE MAR 28 2017


NOTE: "FAIR" INDICATES FEW OR NO CLOUDS BELOW 12,000 FEET WITH NO
SIGNIFICANT WEATHER AND/OR OBSTRUCTIONS TO VISIBILITY. N/A MEANS
CURRENT SKY AND/OR WEATHER CONDITIONS ARE NOT AVAILABLE.

MNZ060>063-068>070-290500-
   Twin Cities Metro

CITY           SKY/WX    TMP DP  RH WIND       PRES   REMARKS
TWIN CITIES    CLOUDY    54  30  40 CALM      30.20R
ST PAUL        PTCLDY    46  35  65 CALM      30.21R
CRYSTAL        CLOUDY    43  27  53 CALM      30.19R
BLAINE         CLEAR     43  30  61 CALM      30.20R
LAKEVILLE      CLOUDY    43  36  75 CALM      30.20R
EDEN PRAIRIE   CLOUDY    50  31  48 NE5       30.19R
SOUTH ST PAUL  PTCLDY    45  33  62 CALM      30.20R
LAKE ELMO      FAIR      39  34  81 CALM      30.21R
$$
MNZ001>005-007-008-013>017-022>024-027-028-290500-
   Northwest Minnesota

CITY           SKY/WX    TMP DP  RH WIND       PRES   REMARKS
BEMIDJI        CLOUDY    40  28  60 CALM      30.22R
HALLOCK        CLOUDY    39  32  75 E8        30.22S
ROSEAU         PTCLDY    37  28  70 E3        30.24S
WARROAD        CLOUDY    37  28  70 NE8       30.25S
THIEF RVR FALL PTCLDY    42  32  67 E10       30.23S
CROOKSTON      MOCLDY    45  36  70 E8        30.22F
FOSSTON        CLOUDY    39  34  81 NE6       30.22S
DETROIT LAKES  CLOUDY    45  34  65 E3        30.21S
MOORHEAD       CLOUDY    43  37  81 CALM      30.21S
PARK RAPIDS    CLOUDY    40  26  57 S6        30.21R
MAHNOMEN       FAIR      38  32  77 E5        30.21S
$$
MNZ006-009>011-018-025>026-290500-
   North Central Minnesota

CITY           SKY/WX    TMP DP  RH WIND       PRES   REMARKS
BAUDETTE       PTCLDY    38  26  62 NE3       30.25S
FLAG ISLAND    CLOUDY    39  21  48 E7        30.25F
INTL FALLS     PTCLDY    38  25  59 NE5       30.26R
WASKISH        PTCLDY    37  28  70 NE3       30.24S
BIG FORK       MOCLDY    39  25  56 CALM      30.24R
LONGVILLE      CLOUDY    34  27  75 CALM      30.21S
GRAND RAPIDS   CLEAR     39  27  62 CALM      30.25R
CRANE LAKE     CLEAR     27  25  93 CALM      30.28S
ORR            CLOUDY    37  23  56 CALM      30.23S
COOK           CLOUDY    32  27  80 CALM      30.25S
WALKER         FAIR      37  26  63 CALM      30.22R
$$
MNZ012-019>021-037-290500-
   Northeast Minnesota

CITY           SKY/WX    TMP DP  RH WIND       PRES   REMARKS
DULUTH         CLEAR     39  29  67 E10       30.25R
ELY            CLEAR     36  27  69 SE6       30.26R
HIBBING        CLEAR     40  25  55 E5        30.23R
EVELETH        CLEAR     39  21  48 E5        30.25S
DULUTH HARBOR  CLEAR     37  34  87 NE16      30.29R
TWO HARBORS    CLEAR     39  30  70 NE6       30.26R
GRAND MARAIS     N/A     38  26  62 NE10      30.33R
G MARAIS ARPRT CLEAR     30  21  69 NE7       30.30R WCI  23
$$
MNZ029>031-032-039>041-046>048-054>057-064-290500-
   West Central Minnesota

CITY           SKY/WX    TMP DP  RH WIND       PRES   REMARKS
FERGUS FALLS   CLOUDY    48  36  61 NE3       30.22S
WHEATON        CLOUDY    46  37  71 CALM      30.22R
MORRIS         CLOUDY    46  39  76 N3        30.19S
ALEXANDRIA     PTCLDY    45  32  60 CALM      30.20S
ELBOW LAKE     FAIR      45  41  86 CALM      30.20S
WADENA         PTCLDY    45  28  53 E3        30.20S
GLENWOOD       PTCLDY    48  30  49 CALM      30.21R
APPLETON       CLOUDY    45  36  70 NE3       30.19S
BENSON         CLOUDY    45  34  65 NE3       30.21S
ORTONVILLE     CLOUDY    48  37  66 NE9       30.19S
MADISON        CLOUDY    52  34  50 E7        30.18F
WILLMAR        FAIR      45  34  65 E5        30.20S
$$
MNZ033>034-036-042>043-049>051-058-059-290500-
   Central Minnesota

CITY           SKY/WX    TMP DP  RH WIND       PRES   REMARKS
ST CLOUD       CLEAR     40  30  67 CALM      30.20R
SAUK CENTRE    FAIR      40  33  74 CALM      30.21R
PAYNESVILLE    PTCLDY    39  32  76 CALM      30.21R
AITKIN         CLOUDY    34  25  69 CALM      30.20S
PINE RIVER     CLOUDY    36  28  75 S5        30.24S
BRAINERD       CLOUDY    38  30  73 CALM      30.21S
STAPLES        PTCLDY    45  27  49 CALM      30.21S
LONG PRAIRIE   FAIR      43  32  65 CALM      30.20S
LITTLE FALLS   PTCLDY    36  30  80 CALM      30.21R
LITCHFIELD     CLOUDY    46  36  66 CALM      30.20S
BUFFALO        CLOUDY    40  32  71 CALM      30.21R
MAPLE LAKE     CLOUDY    38  34  83 CALM      30.21R
HUTCHINSON     CLOUDY    46  35  63 E3        30.20S
$$
MNZ037-044-045-052-053-290500-
   East Central Minnesota

CITY           SKY/WX    TMP DP  RH WIND       PRES   REMARKS
PRINCETON      CLEAR     37  28  70 CALM      30.21R
MORA           PTCLDY    36  30  80 CALM      30.22R
CAMBRIDGE      CLEAR     39  28  65 CALM      30.19R
RUSH CITY      CLEAR     38  29  68 CALM      30.20R
MOOSE LAKE     CLEAR     36  30  80 NE6       30.22R
CLOQUET        PTCLDY    37  28  70 E5        30.24S
MCGREGOR       CLOUDY    41  30  65 E6        30.22S
$$
MNZ071>073-080-081-089-090-097-098-290500-
   Southwest Minnesota

CITY           SKY/WX    TMP DP  RH WIND       PRES   REMARKS
MONTEVIDEO     CLOUDY    46  34  61 E6        30.18F
GRANITE FALLS  CLOUDY    51  33  50 NE5       30.20S
CANBY          MOCLDY    45  38  78 CALM      30.19S
MARSHALL       CLOUDY    49  35  58 CALM      30.18S
REDWOOD FALLS  CLOUDY    51  32  48 NE5       30.18S
OLIVIA         CLOUDY    48  34  57 E3        30.18S
PIPESTONE      CLOUDY    43  32  65 CALM      30.15F
WINDOM         CLOUDY    41  36  81 E5        30.16F
WORTHINGTON    CLOUDY    44  37  76 NE7       30.16F
JACKSON        CLOUDY    43  36  75 E5        30.16F
TRACY          CLOUDY    46  37  69 CALM      30.17S
SLAYTON        CLOUDY    39  34  83 CALM      30.17F
$$
MNZ065>067-074>077-082>085-091>093-290500-
   South Central Minnesota

CITY           SKY/WX    TMP DP  RH WIND       PRES   REMARKS
MANKATO        CLOUDY    49  36  61 E5        30.19S
NEW ULM        PTCLDY    50  34  53 CALM      30.18S
ST JAMES       CLOUDY    46  36  66 CALM      30.18F
FAIRMONT       PTCLDY    45  39  79 E8        30.17F
GLENCOE        PTCLDY    45  37  72 CALM      30.19R
FARIBAULT      CLOUDY    41  37  87 CALM      30.20R
OWATONNA       PTCLDY    45  36  70 CALM      30.20R
WASECA         PTCLDY    43  36  75 E3        30.20S
ALBERT LEA     CLOUDY    45  36  70 E5        30.18S
$$
MNZ078>079-086>088-094>096-290500-
   Southeast Minnesota

CITY           SKY/WX    TMP DP  RH WIND       PRES   REMARKS
ROCHESTER      CLOUDY    49  36  61 E5        30.19R
RED WING       PTCLDY    39  30  70 CALM      30.19S
STANTON        CLOUDY    42  37  82 CALM      30.19R
DODGE CENTER   CLOUDY    45  36  70 E3        30.19S
WINONA         PTCLDY    41  37  87 CALM      30.21R
AUSTIN         CLOUDY    45  37  76 CALM      30.18S
PRESTON        CLOUDY    47  34  59 CALM      30.20R
$$
ABBREVIATIONS USED IN REMARKS
   TC - TEMPERATURES IN CELSIUS
  WCI - WIND CHILL INDEX
   HX - HEAT INDEX
  VSB - VISIBILITY
$$



USA.gov is the U.S. government's official web portal to all federal, state and local government web resources and services.